Location: Colebrook
(42.0017°N, 73.0973°W)
Time: 02:54:40
(UTC-04:00)

Amateur Radio Satellites - All Passes

Search period start: 02 September 2014 02:24
Search period end: 03 September 2014 02:24
Location: Colebrook, 42.0017°N, 73.0973°W

Satellite Date Start Highest point End Downlink Frequencies (MHz)
Time Altitude Azimuth
PCSat 02 Sep 02:37:12 02:42:11 38° 249° (WSW) 02:47:08 145.825 MHz
Oscar 19 02 Sep 02:38:19 02:43:34 89° 104° (ESE) 02:48:45 437.125 CW, 437.150 USB
OPAL 02 Sep 02:42:15 02:42:57 10° 53° (NE) 02:43:40 ?
AO-Echo 02 Sep 02:47:14 02:51:49 52° 100° (E) 02:56:26 ?
Gurwin Techsat 1B 02 Sep 02:48:26 02:52:36 23° 93° (E) 02:56:44 435.225 FM
Oscar 16 02 Sep 03:13:55 03:18:48 43° 291° (WNW) 03:23:40 437.025 USB, Beacon 2401.1428
ITAMSAT 1 02 Sep 03:16:03 03:21:16 87° 104° (ESE) 03:26:28 435.822 SSB
SO-50 02 Sep 03:23:50 03:28:17 76° 121° (ESE) 03:32:52 436.795 FM
Oscar 10/S400 02 Sep 03:24:55 04:36:26 34° 236° (SW) 08:41:40 145.825 - 145.975 CW/USB, Beacon 145.810 USB
Uribyol 2 02 Sep 03:25:26 03:30:37 73° 286° (WNW) 03:35:48 436.500 FM
KITSAT 1 02 Sep 03:26:53 03:30:06 13° 349° (N) 03:33:19 435.175 FM
JAS-1B 02 Sep 03:31:10 03:37:53 87° 285° (WNW) 03:43:42 435.800 - 435.900 CW/SSB
TMSAT-1 02 Sep 03:37:44 03:42:52 48° 99° (E) 03:47:57 436.925 FM
AO-7 02 Sep 03:41:35 03:46:19 16° 89° (E) 03:51:01 29.400 - 29.500 MHz
AO-27 02 Sep 03:45:56 03:50:57 50° 289° (WNW) 03:55:56 436.795 MHz FM
OPAL 02 Sep 04:15:50 04:20:53 72° 71° (ENE) 04:26:02 ?
Oscar 19 02 Sep 04:19:55 04:22:08 13° 302° (WNW) 04:24:20 437.125 CW, 437.150 USB
AO-Echo 02 Sep 04:27:09 04:30:13 18° 297° (WNW) 04:33:16 ?
Gurwin Techsat 1B 02 Sep 04:27:43 04:32:46 46° 290° (WNW) 04:37:48 435.225 FM
ITAMSAT 1 02 Sep 04:57:42 05:00:01 13° 302° (WNW) 05:02:21 435.822 SSB
SO-50 02 Sep 05:06:25 05:09:25 17° 321° (NW) 05:12:27 436.795 FM
Uribyol 2 02 Sep 05:08:45 05:09:11 10° 304° (NW) 05:09:36 436.500 FM
UOSAT-12 02 Sep 05:09:41 05:14:16 71° 121° (ESE) 05:18:58 437.025 FM, 437.400 FM
Uosat F 02 Sep 05:18:15 05:23:16 79° 104° (ESE) 05:28:17 435.120 FM
TMSAT-1 02 Sep 05:18:22 05:22:28 23° 296° (WNW) 05:26:33 436.925 FM
RS-15 02 Sep 05:21:49 05:25:46 13° 95° (E) 05:29:40 29.354 - 29.394 USB, Beacon 29.352 USB
JAS-1B 02 Sep 05:23:52 05:27:16 15° 309° (NW) 05:30:29 435.800 - 435.900 CW/SSB
KITSAT 1 02 Sep 05:25:15 05:29:46 15° 21° (NNE) 05:34:15 435.175 FM
AO-7 02 Sep 05:31:55 05:40:16 83° 108° (ESE) 05:48:33 29.400 - 29.500 MHz
Saudisat 1A 02 Sep 05:32:42 05:35:35 17° 40° (NE) 05:38:27 436.775 MHz
OPAL 02 Sep 05:57:45 06:00:18 14° 268° (W) 06:02:52 ?
STRAND 1 02 Sep 06:04:22 06:08:54 34° 68° (ENE) 06:13:28 ?
Hamsat 02 Sep 06:22:28 06:26:32 38° 97° (E) 06:30:32 145.90 MHz
JAS-2 02 Sep 06:27:49 06:32:51 42° 99° (E) 06:38:17 435.800 - 435.900 CW/SSB, 435.910 FM
UOSAT-12 02 Sep 06:51:38 06:54:56 19° 320° (NW) 06:58:16 437.025 FM, 437.400 FM
Uosat F 02 Sep 06:58:58 07:01:24 14° 301° (WNW) 07:03:50 435.120 FM
SO-67 02 Sep 07:05:44 07:07:34 14° 92° (E) 07:09:23 435.3500 MHz FM
Saudisat 1A 02 Sep 07:11:15 07:15:40 74° 239° (WSW) 07:20:03 436.775 MHz
KITSAT 1 02 Sep 07:20:01 07:27:40 43° 48° (NE) 07:35:15 435.175 FM
RS-15 02 Sep 07:24:54 07:35:47 66° 116° (ESE) 07:46:31 29.354 - 29.394 USB, Beacon 29.352 USB
AO-7 02 Sep 07:25:55 07:32:08 24° 307° (NW) 07:38:20 29.400 - 29.500 MHz
STRAND 1 02 Sep 07:43:42 07:48:06 29° 264° (W) 07:52:31 ?
Hamsat 02 Sep 07:59:04 08:02:14 20° 294° (WNW) 08:05:22 145.90 MHz
JAS-2 02 Sep 08:13:32 08:17:49 26° 294° (WNW) 08:22:19 435.800 - 435.900 CW/SSB, 435.910 FM
HO-68 02 Sep 08:17:50 08:20:14 12° 87° (E) 08:22:37 435.675 MHz FM
SO-67 02 Sep 08:37:35 08:40:44 33° 288° (WNW) 08:43:51 435.3500 MHz FM
KITSAT 1 02 Sep 09:15:31 09:23:10 49° 248° (WSW) 09:30:47 435.175 FM
RS-15 02 Sep 09:38:31 09:48:45 42° 320° (NW) 09:59:00 29.354 - 29.394 USB, Beacon 29.352 USB
ISS 02 Sep 09:48:29 09:51:45 60° 142° (SE) 09:55:03 145.800 FM
UKube-1 02 Sep 09:56:48 10:00:51 37° 98° (E) 10:04:52 145.840 MHz, 145.915 MHz
Oscar 11 02 Sep 10:00:14 10:04:01 28° 96° (E) 10:07:45 145.825 FM, Beacon 2401.500 USB
HO-68 02 Sep 10:01:53 10:09:04 74° 105° (ESE) 10:16:13 435.675 MHz FM
SO-50 02 Sep 10:15:51 10:18:25 14° 36° (NE) 10:21:01 436.795 FM
FUNcube-1 02 Sep 10:33:18 10:37:10 27° 95° (E) 10:41:03 145.950 - 145.970 MHz USB
MaSat-1 02 Sep 11:23:28 11:24:36 11° 98° (E) 11:25:44 437.345 MHz
ISS 02 Sep 11:25:51 11:28:42 25° 340° (NNW) 11:31:33 145.800 FM
UKube-1 02 Sep 11:33:35 11:36:48 21° 295° (WNW) 11:40:02 145.840 MHz, 145.915 MHz
Oscar 11 02 Sep 11:36:26 11:40:07 27° 292° (WNW) 11:43:47 145.825 FM, Beacon 2401.500 USB
HO-68 02 Sep 11:50:43 11:56:05 24° 303° (WNW) 12:01:27 435.675 MHz FM
SO-50 02 Sep 11:54:59 11:59:47 76° 56° (NE) 12:04:38 436.795 FM
RS-15 02 Sep 11:57:14 12:05:09 22° 353° (N) 12:13:10 29.354 - 29.394 USB, Beacon 29.352 USB
UOSAT-12 02 Sep 12:00:27 12:02:41 13° 34° (NE) 12:04:54 437.025 FM, 437.400 FM
FUNcube-1 02 Sep 12:09:32 12:13:32 31° 291° (WNW) 12:17:34 145.950 - 145.970 MHz USB
Oscar 19 02 Sep 12:18:33 12:21:57 18° 61° (ENE) 12:25:22 437.125 CW, 437.150 USB
JAS-1B 02 Sep 12:26:08 12:32:38 22° 56° (ENE) 12:38:35 435.800 - 435.900 CW/SSB
Oscar 16 02 Sep 12:52:21 12:57:02 36° 68° (ENE) 13:01:45 437.025 USB, Beacon 2401.1428
MaSat-1 02 Sep 12:55:47 13:00:43 87° 115° (ESE) 13:05:55 437.345 MHz
ITAMSAT 1 02 Sep 12:57:18 13:00:45 18° 62° (ENE) 13:04:12 435.822 SSB
ISS 02 Sep 13:04:10 13:06:16 16° 360° (N) 13:08:22 145.800 FM
Uribyol 2 02 Sep 13:05:53 13:09:51 23° 64° (ENE) 13:13:50 436.500 FM
PANSAT 02 Sep 13:13:26 13:13:52 10° 186° (S) 13:14:19 not established
TMSAT-1 02 Sep 13:23:54 13:25:07 11° 56° (ENE) 13:26:21 436.925 FM
AO-27 02 Sep 13:25:44 13:30:18 33° 67° (ENE) 13:34:54 436.795 MHz FM
SO-50 02 Sep 13:37:25 13:39:46 14° 252° (WSW) 13:42:08 436.795 FM
UOSAT-12 02 Sep 13:39:01 13:43:45 68° 55° (NE) 13:48:23 437.025 FM, 437.400 FM
Oscar 19 02 Sep 13:55:40 14:00:46 62° 259° (WSW) 14:05:56 437.125 CW, 437.150 USB
AO-Echo 02 Sep 14:00:23 14:05:22 73° 74° (ENE) 14:10:13 ?
Gurwin Techsat 1B 02 Sep 14:09:45 14:14:36 38° 68° (ENE) 14:19:28 435.225 FM
JAS-1B 02 Sep 14:12:24 14:22:09 83° 73° (ENE) 14:30:47 435.800 - 435.900 CW/SSB
RS-15 02 Sep 14:13:02 14:22:26 31° 29° (NNE) 14:32:02 29.354 - 29.394 USB, Beacon 29.352 USB
Oscar 16 02 Sep 14:32:02 14:36:25 28° 265° (W) 14:40:51 437.025 USB, Beacon 2401.1428
ITAMSAT 1 02 Sep 14:34:40 14:39:45 60° 259° (WSW) 14:44:53 435.822 SSB
MaSat-1 02 Sep 14:35:18 14:38:26 16° 314° (NW) 14:41:37 437.345 MHz
AO-7 02 Sep 14:40:43 14:47:20 27° 54° (NE) 14:53:56 29.400 - 29.500 MHz
ISS 02 Sep 14:41:00 14:43:51 25° 20° (NNE) 14:46:41 145.800 FM
Uribyol 2 02 Sep 14:44:05 14:49:01 46° 261° (W) 14:53:59 436.500 FM
Uosat F 02 Sep 14:56:01 14:58:44 15° 60° (ENE) 15:01:28 435.120 FM
TMSAT-1 02 Sep 14:58:52 15:04:08 77° 74° (ENE) 15:09:26 436.925 FM
AO-27 02 Sep 15:05:14 15:09:47 31° 264° (W) 15:14:22 436.795 MHz FM
Sapphire 02 Sep 15:09:51 15:12:17 13° 103° (ESE) 15:14:43 437.095 MHz 1200 baud AX-25 AFSK
UOSAT-12 02 Sep 15:20:46 15:23:19 15° 252° (WSW) 15:25:52 437.025 FM, 437.400 FM
PCSat 02 Sep 15:36:41 15:41:05 26° 108° (ESE) 15:45:30 145.825 MHz
AO-Echo 02 Sep 15:42:31 15:44:36 13° 270° (W) 15:46:40 ?
Gurwin Techsat 1B 02 Sep 15:50:07 15:54:37 28° 265° (W) 15:59:10 435.225 FM
JAS-1B 02 Sep 16:05:53 16:13:13 24° 269° (W) 16:20:02 435.800 - 435.900 CW/SSB
ISS 02 Sep 16:17:30 16:20:48 61° 218° (SW) 16:24:05 145.800 FM
RS-15 02 Sep 16:25:34 16:36:42 82° 56° (NE) 16:48:17 29.354 - 29.394 USB, Beacon 29.352 USB
OPAL 02 Sep 16:26:29 16:30:02 18° 94° (E) 16:33:34 ?
AO-7 02 Sep 16:31:02 16:39:22 75° 254° (WSW) 16:47:44 29.400 - 29.500 MHz
Uosat F 02 Sep 16:31:56 16:36:55 73° 257° (WSW) 16:41:56 435.120 FM
TMSAT-1 02 Sep 16:42:09 16:44:38 13° 271° (W) 16:47:07 436.925 FM
JAS-2 02 Sep 16:42:24 16:46:23 20° 63° (ENE) 16:50:09 435.800 - 435.900 CW/SSB, 435.910 FM
Sapphire 02 Sep 16:49:32 16:54:56 84° 300° (WNW) 17:00:24 437.095 MHz 1200 baud AX-25 AFSK
Hamsat 02 Sep 17:16:16 17:20:01 29° 69° (ENE) 17:23:48 145.90 MHz
PCSat 02 Sep 17:19:01 17:24:13 46° 306° (NW) 17:29:27 145.825 MHz
OPAL 02 Sep 18:04:08 18:09:16 57° 290° (WNW) 18:14:20 ?
STRAND 1 02 Sep 18:17:36 18:18:12 10° 88° (E) 18:18:49 ?
JAS-2 02 Sep 18:25:10 18:31:09 61° 258° (WSW) 18:36:33 435.800 - 435.900 CW/SSB, 435.910 FM
AO-7 02 Sep 18:29:38 18:33:28 14° 272° (W) 18:37:19 29.400 - 29.500 MHz
Sapphire 02 Sep 18:35:54 18:39:13 16° 320° (NW) 18:42:33 437.095 MHz 1200 baud AX-25 AFSK
RS-15 02 Sep 18:39:12 18:47:52 27° 257° (WSW) 18:56:51 29.354 - 29.394 USB, Beacon 29.352 USB
HO-68 02 Sep 18:48:59 18:51:14 12° 48° (NE) 18:53:28 435.675 MHz FM
Hamsat 02 Sep 18:52:22 18:55:57 25° 266° (W) 18:59:35 145.90 MHz
PCSat 02 Sep 19:08:24 19:09:04 10° 328° (NNW) 19:09:43 145.825 MHz
SO-67 02 Sep 19:10:22 19:13:50 80° 77° (ENE) 19:17:19 435.3500 MHz FM
STRAND 1 02 Sep 19:52:56 19:58:05 90° 285° (WNW) 20:03:11 ?
HO-68 02 Sep 20:30:30 20:37:26 58° 68° (ENE) 20:44:24 435.675 MHz FM
UKube-1 02 Sep 20:52:45 20:56:41 35° 69° (ENE) 21:00:38 145.840 MHz, 145.915 MHz
Oscar 11 02 Sep 20:55:59 20:59:27 24° 67° (ENE) 21:02:57 145.825 FM, Beacon 2401.500 USB
MaSat-1 02 Sep 21:13:47 21:17:26 23° 50° (NE) 21:20:42 437.345 MHz
Saudisat 1A 02 Sep 21:18:37 21:22:16 26° 113° (ESE) 21:25:55 436.775 MHz
FUNcube-1 02 Sep 21:30:49 21:34:02 22° 66° (ENE) 21:37:19 145.950 - 145.970 MHz USB
STRAND 1 02 Sep 21:34:30 21:36:30 12° 302° (WNW) 21:38:30 ?
KITSAT 1 02 Sep 21:50:24 21:56:36 25° 104° (ESE) 22:02:48 435.175 FM
HO-68 02 Sep 22:19:35 22:25:29 28° 266° (W) 22:31:26 435.675 MHz FM
UKube-1 02 Sep 22:29:39 22:32:57 21° 266° (W) 22:36:17 145.840 MHz, 145.915 MHz
Oscar 11 02 Sep 22:31:36 22:35:29 31° 264° (W) 22:39:24 145.825 FM, Beacon 2401.500 USB
MaSat-1 02 Sep 22:50:30 22:54:35 36° 253° (WSW) 22:58:07 437.345 MHz
Saudisat 1A 02 Sep 22:57:37 23:01:41 36° 311° (NW) 23:05:48 436.775 MHz
FUNcube-1 02 Sep 23:06:26 23:10:14 33° 263° (W) 23:14:08 145.950 - 145.970 MHz USB
KITSAT 1 02 Sep 23:43:08 23:51:13 74° 303° (WNW) 23:59:20 435.175 FM
Sapphire 02 Sep 23:55:02 23:58:23 16° 40° (NE) 00:01:43 437.095 MHz 1200 baud AX-25 AFSK
PCSat 03 Sep 00:23:29 00:28:01 26° 47° (NE) 00:32:30 145.825 MHz
Oscar 16 03 Sep 01:05:39 01:07:36 12° 89° (E) 01:09:31 437.025 USB, Beacon 2401.1428
Sapphire 03 Sep 01:37:11 01:42:39 84° 61° (ENE) 01:48:05 437.095 MHz 1200 baud AX-25 AFSK
AO-27 03 Sep 01:41:07 01:42:02 10° 88° (E) 01:42:56 436.795 MHz FM
KITSAT 1 03 Sep 01:42:02 01:48:06 22° 327° (NNW) 01:54:11 435.175 FM
JAS-1B 03 Sep 02:01:09 02:05:22 18° 88° (E) 02:09:17 435.800 - 435.900 CW/SSB
PCSat 03 Sep 02:06:27 02:11:43 53° 246° (WSW) 02:16:57 145.825 MHz
Oscar 19 03 Sep 02:06:57 02:11:57 46° 99° (E) 02:16:54 437.125 CW, 437.150 USB
AO-Echo 03 Sep 02:07:57 02:11:30 21° 94° (E) 02:15:04 ?
SO-50 03 Sep 02:11:32 02:14:54 21° 111° (ESE) 02:18:19 436.795 FM
